Regional Weather Roundup
Issued by NWS

Home | Current Version | Previous Version | Text Only | Print | Product List | Glossary On
Versions: 1 2 3 4 5 6 7 8 9 10 11 12 13 14 15 16 17 18 19 20 21 22 23 24 25 26 27 28 29 30 31 32 33 34 35 36 37 38 39 40 41 42 43 44 45 46 47 48 49
000
ASUS46 KSEW 312010
RWRWA

WASHINGTON REGIONAL WEATHER ROUNDUP
NATIONAL WEATHER SERVICE SEATTLE WA
100 PM PDT MON AUG 31 2015

NOTE:"FAIR" INDICATES FEW OR NO CLOUDS BELOW 12,000 FEET WITH NO
SIGNIFICANT WEATHER AND/OR OBSTRUCTIONS TO VISIBILITY.

WAZ505-507>509-312100-
SEATTLE, TACOMA, EVERETT, AND VICINITY

CITY           SKY/WX    TMP DP  RH WIND       PRES   REMARKS
EVERETT        LGT RAIN  60  55  83 S23G30    29.94S
BOEING FIELD   CLOUDY    67  55  65 S12G21    29.97F
RENTON         CLOUDY    64  55  72 S17G23    29.98F
SEATAC AIRPORT CLOUDY    63  55  75 S14       29.99F
JBLM-MCCHORD   CLOUDY    61  58  91 S9        29.99F
PUYALLUP       CLOUDY    63  57  82 CALM      30.00F
BREMERTON      CLOUDY    61  57  88 S14G20    29.98F
JBLM-FT LEWIS  PTSUNNY   61  59  93 SE10      29.98F
TACOMA NARROWS CLOUDY    62  56  80 S16       29.99S
$$

WAZ001-503-506-510-514-515-312100-
NORTH INTERIOR

CITY           SKY/WX    TMP DP  RH WIND       PRES   REMARKS
BELLINGHAM     LGT RAIN  61  57  87 S14G22    29.90R
FRIDAY HARBOR  CLOUDY    60  56  86 SE8       29.89F
EASTSOUND      LGT RAIN  61  57  88 S7G17     29.86S
PORT ANGELES   LGT RAIN  61  54  77 N5        29.88F
PORT TOWNSEND  CLOUDY    63  57  82 VRB5      29.88S
NAS WHIDBEY    CLOUDY    61  57  87 SE23G31   29.93S
ARLINGTON      CLOUDY    63  54  72 SE20G25   29.93F
BURLINGTON     CLOUDY    61  57  88 SE9G16    29.91F
$$

WAZ020-022-039-040-504-511-512-312100-
SOUTHWEST INTERIOR

CITY           SKY/WX    TMP DP  RH WIND       PRES   REMARKS
SHELTON        LGT RAIN  63  58  83 SW13G21   29.95S
OLYMPIA        CLOUDY    62  58  86 S14       29.99F
CHEHALIS       PTSUNNY   64  59  82 S10G18    30.00F HAZE
KELSO          NOT AVBL
VANCOUVER      CLOUDY    70  53  54 W7        30.03F
SCAPPOOSE, OR  CLOUDY    69  54  58 S6        30.02F
PORTLAND, OR   CLOUDY    70  54  56 SW8       30.03F
$$

WAZ021-516-517-312100-
WASHINGTON COAST

CITY           SKY/WX    TMP DP  RH WIND       PRES   REMARKS
FORKS          LGT RAIN  60  59  96 S9G17     29.92R
HOQUIAM        CLOUDY    64  60  87 S16       29.98S FOG
ASTORIA, OR    CLOUDY    66  60  81 S15G28    30.00F
$$

WAZ019-023-024-040-518-519-312100-
CASCADE MOUNTAINS AND COLUMBIA GORGE

CITY           SKY/WX    TMP DP  RH WIND       PRES   REMARKS
TROUTDALE, OR  CLOUDY    70  52  52 VRB3      30.02F
THE DALLES, OR MOSUNNY   77  49  37 W10       29.97F
$$

WAZ026-027-041>044-520-521-312100-
EAST SLOPES

CITY           SKY/WX    TMP DP  RH WIND       PRES   REMARKS
OMAK           CLOUDY    67  45  45 S17       29.92F
WENATCHEE      CLOUDY    69  46  43 E3        29.93F
ELLENSBURG     CLOUDY    68  46  45 NW8       29.97F
YAKIMA         PTSUNNY   76  47  35 N6        29.95F
$$

WAZ028-034-035-312100-
COLUMBIA BASIN

CITY           SKY/WX    TMP DP  RH WIND       PRES   REMARKS
EPHRATA        CLOUDY    74  46  36 SW13G21   29.94F
MOSES LAKE     CLOUDY    72  45  37 S15       29.96F
PASCO          MOSUNNY   78  47  33 SW16      29.95F
HERMISTON, OR  SUNNY     79  46  31 W13       29.96F
$$

WAZ036>038-312100-
NORTHEAST WASHINGTON

CITY           SKY/WX    TMP DP  RH WIND       PRES   REMARKS
SPOKANE GEIGER PTSUNNY   66  44  45 SW16G22   30.00F
SPOKANE FELTS  CLOUDY    68  44  42 SW13G20   30.00F
FAIRCHILD AFB  PTSUNNY   65  43  44 S13G21    30.00F
COEURDALENE,ID CLOUDY    64  45  48 S16       30.00F
DEER PARK      CLOUDY    65  44  46 S14       30.00F
$$

WAZ029>033-312100-
SOUTHEAST WASHINGTON

CITY           SKY/WX    TMP DP  RH WIND       PRES   REMARKS
PULLMAN        MOSUNNY   67  43  41 SW8G17    30.04F
LEWISTON, ID   SUNNY     74  43  32 W5        29.99F
WALLA WALLA    MOSUNNY   74  45  35 S5        29.98F
PENDLETON, OR  SUNNY     73  43  33 VRB6      29.98F
$$



USA.gov is the U.S. government's official web portal to all federal, state and local government web resources and services.